Orbital Elements at Epoch 2459200.5 (2020-Dec-17.0) TDB
Reference: JPL 22 (heliocentric ecliptic J2000)
Element | Value | Uncertainty (1-sigma) | Units |
e | .04826811855757304 | 6.7843e-08 | |
a | 2.973032730892857 | 2.4319e-08 | au |
q | 2.829530034562576 | 2.0984e-07 | au |
i | 8.84244284462055 | 6.0353e-06 | deg |
node | 304.8690364537891 | 2.6274e-05 | deg |
peri | 203.1633460664162 | 5.2779e-05 | deg |
M | 329.281852996826 | 4.4332e-05 | deg |
tp | 2459360.268249267544 (2021-May-25.76824927) | 0.00023079 | TDB |
period | 1872.397112051478 5.13 | 2.2974e-05 6.29e-08 | d yr |
n | .192266906247024 | 2.3591e-09 | deg/d |
Q | 3.116535427223139 | 2.5493e-08 | au |
|
| | Orbit Determination Parameters
Additional Information
|